,,Stat5,,Stat1,,Stat2,,Stat3,,Stat4,,Wind1,,Wind1,
time,status,PA1M_AVG,status,PR1M_SUM,status,RH1M_AVG,status,SR1M_AVG,status,TA1M_AVG,status,W1dAve1m,status,W1sAve1m,
2000-05-10, 00:00:00,VALID,917.977,VALID,0,VALID,95.5153,VALID,-0.0509425,VALID,19.9942,VALID,82,VALID,0.398872,
2000-05-10, 00:01:00,VALID,917.974,VALID,0,VALID,95.5573,VALID,-0.0339617,VALID,19.9845,VALID,98,VALID,0.392064,
2000-05-10, 00:02:00,VALID,917.989,VALID,0,VALID,95.6768,VALID,-0.0679233,VALID,19.9848,VALID,99,VALID,0.56875,
2000-05-10, 00:03:00,VALID,917.976,VALID,0,VALID,95.6386,VALID,-0.0679233,VALID,19.9945,VALID,93,VALID,0.724507,
2000-05-10, 00:04:00,VALID,917.963,VALID,0,VALID,95.5954,VALID,-0.0849042,VALID,19.9947,VALID,93,VALID,0.913845,
2000-05-10, 00:05:00,VALID,917.937,VALID,0,VALID,95.3691,VALID,-0.0339617,VALID,19.9815,VALID,95,VALID,0.250206,
2000-05-10, 00:06:00,VALID,917.916,VALID,0,VALID,95.3055,VALID,-0.0849042,VALID,19.9495,VALID,95,VALID,0.0603693,
2000-05-10, 00:07:00,VALID,917.894,VALID,0,VALID,95.3894,VALID,-0.0509425,VALID,19.9371,VALID,90,VALID,0.476357,
2000-05-10, 00:08:00,VALID,917.905,VALID,0,VALID,95.5471,VALID,-0.0509425,VALID,19.9142,VALID,90,VALID,0.101128,
2000-05-10, 00:09:00,VALID,917.895,VALID,0,VALID,95.556,VALID,-0.101885,VALID,19.8943,VALID,90,VALID,0,
2000-05-10, 00:10:00,VALID,917.891,VALID,0,VALID,95.4365,VALID,-0.118866,VALID,19.8814,VALID,87,VALID,0,
2000-05-10, 00:11:00,VALID,917.901,VALID,0,VALID,95.336,VALID,-0.0339617,VALID,19.8391,VALID,84,VALID,0,
2000-05-10, 00:12:00,VALID,917.896,VALID,0,VALID,95.3576,VALID,-0.101885,VALID,19.817,VALID,85,VALID,0,
2000-05-10, 00:13:00,VALID,917.895,VALID,0,VALID,95.2203,VALID,-0.101885,VALID,19.7949,VALID,22,VALID,0,
2000-05-10, 00:14:00,VALID,917.894,VALID,0,VALID,95.1224,VALID,-0.0509425,VALID,19.7686,VALID,71,VALID,0,
2000-05-10, 00:15:00,VALID,917.89,VALID,0,VALID,95.102,VALID,-0.0509425,VALID,19.7492,VALID,89,VALID,0,
2000-05-10, 00:16:00,VALID,917.872,VALID,0,VALID,95.0995,VALID,-0.0849042,VALID,19.74,VALID,94,VALID,0,
2000-05-10, 00:17:00,VALID,917.875,VALID,0,VALID,94.8464,VALID,-0.101885,VALID,19.7176,VALID,177,VALID,0,
2000-05-10, 00:18:00,VALID,917.851,VALID,0,VALID,95.0295,VALID,-0.101885,VALID,19.6759,VALID,166,VALID,0,
2000-05-10, 00:19:00,VALID,917.852,VALID,0,VALID,95.1338,VALID,-0.0849042,VALID,19.6239,VALID,143,VALID,0,
2000-05-10, 00:20:00,VALID,917.839,VALID,0,VALID,94.896,VALID,-0.118866,VALID,19.5399,VALID,111,VALID,0,
2000-05-10, 00:21:00,VALID,917.825,VALID,0,VALID,94.8261,VALID,-0.0849042,VALID,19.4714,VALID,129,VALID,0,
2000-05-10, 00:22:00,VALID,917.825,VALID,0,VALID,95.2991,VALID,-0.101885,VALID,19.4232,VALID,169,VALID,0,
2000-05-10, 00:23:00,VALID,917.834,VALID,0,VALID,95.6183,VALID,-0.0849042,VALID,19.3484,VALID,198,VALID,0,
2000-05-10, 00:24:00,VALID,917.83,VALID,0,VALID,95.7505,VALID,-0.0849042,VALID,19.2743,VALID,206,VALID,0,
2000-05-10, 00:25:00,VALID,917.818,VALID,0,VALID,95.7912,VALID,-0.0849042,VALID,19.2229,VALID,216,VALID,0.0458193,
2000-05-10, 00:26:00,VALID,917.815,VALID,0,VALID,95.9451,VALID,-0.101885,VALID,19.1657,VALID,222,VALID,0.862822,
2000-05-10, 00:27:00,VALID,917.811,VALID,0,VALID,96.6394,VALID,-0.0679233,VALID,19.1327,VALID,217,VALID,0.74641,
2000-05-10, 00:28:00,VALID,917.809,VALID,0,VALID,96.8899,VALID,-0.0509425,VALID,19.1036,VALID,209,VALID,0.567909,
2000-05-10, 00:29:00,VALID,917.797,VALID,0,VALID,96.7513,VALID,-0.0679233,VALID,19.0395,VALID,194,VALID,0.486161,
2000-05-10, 00:30:00,VALID,917.776,VALID,0,VALID,96.7818,VALID,-0.0679233,VALID,18.962,VALID,175,VALID,0.708059,
2000-05-10, 00:31:00,VALID,917.763,VALID,0,VALID,97.1786,VALID,-0.101885,VALID,18.9101,VALID,175,VALID,0.766518,
2000-05-10, 00:32:00,VALID,917.745,VALID,0,VALID,97.5715,VALID,-0.101885,VALID,18.8815,VALID,181,VALID,0.90625,
2000-05-10, 00:33:00,VALID,917.732,VALID,0,VALID,98.0089,VALID,-0.0849042,VALID,18.8909,VALID,185,VALID,1.03993,
2000-05-10, 00:34:00,VALID,917.713,VALID,0,VALID,98.2149,VALID,-0.101885,VALID,18.9004,VALID,188,VALID,0.979167,
2000-05-10, 00:35:00,VALID,917.703,VALID,0,VALID,98.3751,VALID,-0.0339617,VALID,18.8971,VALID,190,VALID,0.962582,
2000-05-10, 00:36:00,VALID,917.687,VALID,0,VALID,98.4438,VALID,-0.0509425,VALID,18.8974,VALID,187,VALID,0.775174,
2000-05-10, 00:37:00,VALID,917.687,VALID,0,VALID,98.4985,VALID,-0.0679233,VALID,18.8879,VALID,195,VALID,0.943359,
2000-05-10, 00:38:00,VALID,917.686,VALID,0,VALID,98.5494,VALID,-0.0679233,VALID,18.875,VALID,199,VALID,1.00103,
2000-05-10, 00:39:00,VALID,917.661,VALID,0,VALID,98.618,VALID,-0.0849042,VALID,18.8621,VALID,207,VALID,0.710714,
2000-05-10, 00:40:00,VALID,917.645,VALID,0,VALID,98.604,VALID,-0.0679233,VALID,18.8489,VALID,211,VALID,0.701225,
2000-05-10, 00:41:00,VALID,917.631,VALID,0,VALID,98.646,VALID,-0.0339617,VALID,18.8395,VALID,204,VALID,0.419118,
2000-05-10, 00:42:00,VALID,917.615,VALID,0,VALID,98.6485,VALID,-0.0509425,VALID,18.8233,VALID,195,VALID,0.643159,
2000-05-10, 00:43:00,VALID,917.579,VALID,0,VALID,98.5773,VALID,-0.0679233,VALID,18.7781,VALID,175,VALID,0.776442,
2000-05-10, 00:44:00,VALID,917.548,VALID,0,VALID,98.5646,VALID,-0.0509425,VALID,18.7493,VALID,166,VALID,0.793304,
2000-05-10, 00:45:00,VALID,917.513,VALID,0,VALID,98.5659,VALID,-0.0509425,VALID,18.7108,VALID,154,VALID,0.920641,
2000-05-10, 00:46:00,VALID,917.492,VALID,0,VALID,98.5176,VALID,-0.101885,VALID,18.6817,VALID,154,VALID,0.817187,
2000-05-10, 00:47:00,VALID,917.485,VALID,0,VALID,98.6498,VALID,-0.0509425,VALID,18.6651,VALID,161,VALID,0.816406,
2000-05-10, 00:48:00,VALID,917.464,VALID,0,VALID,98.8139,VALID,-0.0849042,VALID,18.7075,VALID,173,VALID,0.74566,
2000-05-10, 00:49:00,VALID,917.452,VALID,0,VALID,98.8901,VALID,-0.0509425,VALID,18.7393,VALID,176,VALID,0.6773,
2000-05-10, 00:50:00,VALID,917.415,VALID,0,VALID,98.8571,VALID,-0.0679233,VALID,18.7393,VALID,176,VALID,0.792969,
2000-05-10, 00:51:00,VALID,917.404,VALID,0,VALID,98.8812,VALID,-0.0849042,VALID,18.75,VALID,182,VALID,0.682075,
2000-05-10, 00:52:00,VALID,917.371,VALID,0,VALID,98.8812,VALID,-0.101885,VALID,18.7269,VALID,197,VALID,0.707465,
2000-05-10, 00:53:00,VALID,917.345,VALID,0,VALID,98.8329,VALID,0,VALID,18.7096,VALID,196,VALID,0.746505,
2000-05-10, 00:54:00,VALID,917.321,VALID,0,VALID,98.8609,VALID,0.0169808,VALID,18.6934,VALID,180,VALID,0.770536,
2000-05-10, 00:55:00,VALID,917.296,VALID,0,VALID,98.9499,VALID,0,VALID,18.7167,VALID,170,VALID,0.905194,
2000-05-10, 00:56:00,VALID,917.28,VALID,0,VALID,98.9741,VALID,-0.101885,VALID,18.7142,VALID,172,VALID,0.998621,
2000-05-10, 00:57:00,VALID,917.26,VALID,0,VALID,98.9664,VALID,-0.101885,VALID,18.7244,VALID,174,VALID,1.09882,
2000-05-10, 00:58:00,VALID,917.236,VALID,0,VALID,98.9563,VALID,-0.118866,VALID,18.7241,VALID,167,VALID,1.1887,
2000-05-10, 00:59:00,VALID,917.223,VALID,0,VALID,99.0275,VALID,-0.118866,VALID,18.7145,VALID,172,VALID,1.21696,
2000-05-10, 01:00:00,VALID,917.215,VALID,0,VALID,99.0084,VALID,-0.101885,VALID,18.7338,VALID,173,VALID,1.19442,
2000-05-10, 01:01:00,VALID,917.194,VALID,0,VALID,98.9563,VALID,-0.101885,VALID,18.7115,VALID,170,VALID,1.30714,
2000-05-10, 01:02:00,VALID,917.18,VALID,0,VALID,98.8978,VALID,-0.101885,VALID,18.6727,VALID,172,VALID,1.21962,
2000-05-10, 01:03:00,VALID,917.167,VALID,0,VALID,98.9321,VALID,-0.101885,VALID,18.6625,VALID,182,VALID,1.12695,
2000-05-10, 01:04:00,VALID,917.158,VALID,0,VALID,98.9575,VALID,-0.101885,VALID,18.6466,VALID,191,VALID,1.01931,
2000-05-10, 01:05:00,VALID,917.142,VALID,0,VALID,98.9919,VALID,-0.101885,VALID,18.6595,VALID,198,VALID,0.952508,
2000-05-10, 01:06:00,VALID,917.137,VALID,0,VALID,98.9601,VALID,-0.0849042,VALID,18.6531,VALID,197,VALID,1.05686,
2000-05-10, 01:07:00,VALID,917.126,VALID,0,VALID,98.9194,VALID,-0.101885,VALID,18.6245,VALID,191,VALID,0.949002,
2000-05-10, 01:08:00,VALID,917.102,VALID,0,VALID,98.9245,VALID,0,VALID,18.6397,VALID,189,VALID,1.11863,
2000-05-10, 01:09:00,VALID,917.099,VALID,0,VALID,98.8863,VALID,0.0169808,VALID,18.5968,VALID,193,VALID,1.11138,
2000-05-10, 01:10:00,VALID,917.084,VALID,0,VALID,98.9499,VALID,-0.0169808,VALID,18.594,VALID,203,VALID,1.04709,
2000-05-10, 01:11:00,VALID,917.075,VALID,0,VALID,98.9563,VALID,0,VALID,18.5938,VALID,192,VALID,1.23116,
2000-05-10, 01:12:00,VALID,917.059,VALID,0,VALID,99.1165,VALID,0,VALID,18.639,VALID,172,VALID,1.25359,
2000-05-10, 01:13:00,VALID,917.06,VALID,0,VALID,99.1419,VALID,0,VALID,18.7011,VALID,156,VALID,1.40024,
2000-05-10, 01:14:00,VALID,917.056,VALID,0,VALID,99.0555,VALID,0.0169808,VALID,18.6877,VALID,184,VALID,1.18326,
2000-05-10, 01:15:00,VALID,917.053,VALID,0,VALID,99.0618,VALID,0.0169808,VALID,18.7001,VALID,182,VALID,1.01686,
2000-05-10, 01:16:00,VALID,917.039,VALID,0,VALID,98.9868,VALID,0.0339617,VALID,18.6909,VALID,168,VALID,0.937723,
2000-05-10, 01:17:00,VALID,917.037,VALID,0,VALID,98.9601,VALID,0,VALID,18.6681,VALID,181,VALID,0.982639,
2000-05-10, 01:18:00,VALID,917.032,VALID,0,VALID,98.9766,VALID,0.0169808,VALID,18.6616,VALID,187,VALID,1.12283,
2000-05-10, 01:19:00,VALID,917.034,VALID,0,VALID,98.9728,VALID,0,VALID,18.6487,VALID,200,VALID,1.27474,
2000-05-10, 01:20:00,VALID,917.014,VALID,0,VALID,99.1101,VALID,0,VALID,18.7038,VALID,194,VALID,1.52447,
2000-05-10, 01:21:00,VALID,917.012,VALID,0,VALID,99.072,VALID,0,VALID,18.7396,VALID,193,VALID,1.29753,
2000-05-10, 01:22:00,VALID,916.995,VALID,0,VALID,98.9423,VALID,0,VALID,18.7334,VALID,200,VALID,1.00629,
2000-05-10, 01:23:00,VALID,916.969,VALID,0,VALID,98.9054,VALID,-0.0169808,VALID,18.7204,VALID,201,VALID,1.01994,
2000-05-10, 01:24:00,VALID,916.938,VALID,0,VALID,98.8291,VALID,-0.0169808,VALID,18.7241,VALID,207,VALID,0.909375,
2000-05-10, 01:25:00,VALID,916.896,VALID,0,VALID,98.824,VALID,-0.0339617,VALID,18.711,VALID,199,VALID,0.860642,
2000-05-10, 01:26:00,VALID,916.879,VALID,0,VALID,98.8164,VALID,0,VALID,18.7237,VALID,201,VALID,0.719899,
2000-05-10, 01:27:00,VALID,916.859,VALID,0,VALID,98.7197,VALID,-0.0169808,VALID,18.7209,VALID,208,VALID,0.692568,
2000-05-10, 01:28:00,VALID,916.84,VALID,0,VALID,98.6689,VALID,-0.0509425,VALID,18.7013,VALID,210,VALID,0.852364,
2000-05-10, 01:29:00,VALID,916.817,VALID,0,VALID,98.6193,VALID,-0.0339617,VALID,18.7045,VALID,216,VALID,1.14933,
2000-05-10, 01:30:00,VALID,916.789,VALID,0,VALID,98.6396,VALID,0,VALID,18.6941,VALID,209,VALID,0.934005,
2000-05-10, 01:31:00,VALID,916.763,VALID,0,VALID,98.5862,VALID,0,VALID,18.6722,VALID,191,VALID,0.814062,
2000-05-10, 01:32:00,VALID,916.745,VALID,0,VALID,98.6613,VALID,0,VALID,18.6621,VALID,186,VALID,1.11827,
2000-05-10, 01:33:00,VALID,916.732,VALID,0,VALID,98.7363,VALID,0,VALID,18.6852,VALID,192,VALID,1.16602,
2000-05-10, 01:34:00,VALID,916.728,VALID,0,VALID,98.6193,VALID,0,VALID,18.6621,VALID,197,VALID,1.00412,
2000-05-10, 01:35:00,VALID,916.726,VALID,0,VALID,98.515,VALID,0,VALID,18.6332,VALID,192,VALID,1.17311,
2000-05-10, 01:36:00,VALID,916.732,VALID,0,VALID,98.5748,VALID,-0.0169808,VALID,18.63,VALID,188,VALID,1.27604,
2000-05-10, 01:37:00,VALID,916.735,VALID,0,VALID,98.4947,VALID,-0.0169808,VALID,18.6335,VALID,188,VALID,1.4171,
2000-05-10, 01:38:00,VALID,916.735,VALID,0,VALID,98.4362,VALID,0,VALID,18.6169,VALID,186,VALID,1.33183,
2000-05-10, 01:39:00,VALID,916.734,VALID,0,VALID,98.4095,VALID,0,VALID,18.6531,VALID,191,VALID,1.32254,
2000-05-10, 01:40:00,VALID,916.726,VALID,0,VALID,98.1679,VALID,-0.0339617,VALID,18.6171,VALID,187,VALID,1.00676,
2000-05-10, 01:41:00,VALID,916.71,VALID,0,VALID,98.159,VALID,0,VALID,18.5982,VALID,186,VALID,1.0864,
2000-05-10, 01:42:00,VALID,916.693,VALID,0,VALID,98.1513,VALID,-0.0339617,VALID,18.5723,VALID,184,VALID,1.27534,
2000-05-10, 01:43:00,VALID,916.701,VALID,0,VALID,98.1755,VALID,0,VALID,18.5366,VALID,197,VALID,0.940104,
2000-05-10, 01:44:00,VALID,916.688,VALID,0,VALID,98.2086,VALID,0,VALID,18.4847,VALID,192,VALID,0.66875,
2000-05-10, 01:45:00,VALID,916.685,VALID,0,VALID,98.3701,VALID,0,VALID,18.4681,VALID,169,VALID,1.08409,
2000-05-10, 01:46:00,VALID,916.671,VALID,0,VALID,98.4438,VALID,-0.0169808,VALID,18.4397,VALID,170,VALID,1.09442,
2000-05-10, 01:47:00,VALID,916.665,VALID,0,VALID,98.4387,VALID,0,VALID,18.3912,VALID,167,VALID,0.899957,
2000-05-10, 01:48:00,VALID,916.666,VALID,0,VALID,98.5494,VALID,0,VALID,18.3654,VALID,174,VALID,0.878906,
2000-05-10, 01:49:00,VALID,916.668,VALID,0,VALID,98.5519,VALID,0,VALID,18.356,VALID,171,VALID,0.855035,
2000-05-10, 01:50:00,VALID,916.669,VALID,0,VALID,98.5455,VALID,0,VALID,18.2948,VALID,174,VALID,0.585115,
2000-05-10, 01:51:00,VALID,916.671,VALID,0,VALID,98.529,VALID,-0.0509425,VALID,18.2229,VALID,168,VALID,0.650391,
2000-05-10, 01:52:00,VALID,916.665,VALID,0,VALID,98.5875,VALID,-0.0169808,VALID,18.2039,VALID,167,VALID,0.599392,
2000-05-10, 01:53:00,VALID,916.654,VALID,0,VALID,98.6002,VALID,-0.0339617,VALID,18.1783,VALID,146,VALID,0.379729,
2000-05-10, 01:54:00,VALID,916.649,VALID,0,VALID,98.6193,VALID,-0.0339617,VALID,18.1463,VALID,146,VALID,0.249777,
2000-05-10, 01:55:00,VALID,916.651,VALID,0,VALID,98.6422,VALID,-0.0679233,VALID,18.14,VALID,142,VALID,0,
2000-05-10, 01:56:00,VALID,916.645,VALID,0,VALID,98.6956,VALID,-0.0679233,VALID,18.1463,VALID,142,VALID,0,
2000-05-10, 01:57:00,VALID,916.64,VALID,0,VALID,98.6969,VALID,-0.0509425,VALID,18.1334,VALID,141,VALID,0,
2000-05-10, 01:58:00,VALID,916.634,VALID,0,VALID,98.7388,VALID,-0.0679233,VALID,18.1532,VALID,141,VALID,0,
2000-05-10, 01:59:00,VALID,916.63,VALID,0,VALID,98.7935,VALID,-0.0679233,VALID,18.1686,VALID,177,VALID,0,
2000-05-10, 02:00:00,VALID,916.618,VALID,0,VALID,98.8342,VALID,-0.0169808,VALID,18.1947,VALID,197,VALID,0,
2000-05-10, 02:01:00,VALID,916.589,VALID,0,VALID,98.8584,VALID,-0.0679233,VALID,18.2145,VALID,197,VALID,0,
2000-05-10, 02:02:00,VALID,916.574,VALID,0,VALID,98.8545,VALID,-0.0849042,VALID,18.2208,VALID,197,VALID,0,
2000-05-10, 02:03:00,VALID,916.569,VALID,0,VALID,98.838,VALID,-0.0679233,VALID,18.2109,VALID,197,VALID,0,
2000-05-10, 02:04:00,VALID,916.543,VALID,0,VALID,98.7554,VALID,-0.0339617,VALID,18.1915,VALID,197,VALID,0,
2000-05-10, 02:05:00,VALID,916.514,VALID,0,VALID,98.7261,VALID,0,VALID,18.1624,VALID,197,VALID,0,
2000-05-10, 02:06:00,VALID,916.521,VALID,0,VALID,98.7019,VALID,-0.0679233,VALID,18.1467,VALID,197,VALID,0,
2000-05-10, 02:07:00,VALID,916.504,VALID,0,VALID,98.7083,VALID,-0.0509425,VALID,18.1172,VALID,197,VALID,0,
2000-05-10, 02:08:00,VALID,916.478,VALID,0,VALID,98.6511,VALID,-0.0509425,VALID,18.0981,VALID,197,VALID,0,
2000-05-10, 02:09:00,VALID,916.47,VALID,0,VALID,98.7236,VALID,-0.0509425,VALID,18.0886,VALID,197,VALID,0,
2000-05-10, 02:10:00,VALID,916.457,VALID,0,VALID,98.5341,VALID,-0.0509425,VALID,18.0332,VALID,183,VALID,0.21875,
2000-05-10, 02:11:00,VALID,916.45,VALID,0,VALID,98.4502,VALID,-0.0509425,VALID,17.9271,VALID,160,VALID,0.643842,
2000-05-10, 02:12:00,VALID,916.46,VALID,0,VALID,98.8215,VALID,-0.0339617,VALID,17.9465,VALID,168,VALID,0.773226,
2000-05-10, 02:13:00,VALID,916.461,VALID,0,VALID,98.9703,VALID,-0.0679233,VALID,18.0076,VALID,188,VALID,0.777244,
2000-05-10, 02:14:00,VALID,916.469,VALID,0,VALID,98.913,VALID,-0.0509425,VALID,17.9949,VALID,182,VALID,0.828795,
2000-05-10, 02:15:00,VALID,916.479,VALID,0,VALID,98.9804,VALID,-0.0679233,VALID,17.9721,VALID,177,VALID,1.1065,
2000-05-10, 02:16:00,VALID,916.47,VALID,0,VALID,98.9881,VALID,-0.0849042,VALID,17.956,VALID,173,VALID,0.88817,
2000-05-10, 02:17:00,VALID,916.458,VALID,0,VALID,98.927,VALID,-0.0679233,VALID,17.8951,VALID,164,VALID,0.721571,
2000-05-10, 02:18:00,VALID,916.449,VALID,0,VALID,98.8494,VALID,-0.0339617,VALID,17.8399,VALID,167,VALID,0.609809,
2000-05-10, 02:19:00,VALID,916.431,VALID,0,VALID,98.9957,VALID,-0.0849042,VALID,17.801,VALID,169,VALID,0.937934,
2000-05-10, 02:20:00,VALID,916.41,VALID,0,VALID,99.1585,VALID,-0.0509425,VALID,17.8494,VALID,178,VALID,1.09745,
2000-05-10, 02:21:00,VALID,916.403,VALID,0,VALID,99.2665,VALID,-0.0509425,VALID,17.908,VALID,191,VALID,1.27561,
2000-05-10, 02:22:00,VALID,916.381,VALID,0,VALID,99.2882,VALID,-0.0509425,VALID,17.9172,VALID,188,VALID,1.13997,
2000-05-10, 02:23:00,VALID,916.362,VALID,0,VALID,99.3009,VALID,-0.0169808,VALID,17.9267,VALID,195,VALID,1.03598,
2000-05-10, 02:24:00,VALID,916.347,VALID,0,VALID,99.292,VALID,-0.0849042,VALID,17.9239,VALID,200,VALID,1.01786,
2000-05-10, 02:25:00,VALID,916.325,VALID,0,VALID,99.3721,VALID,-0.0849042,VALID,17.9666,VALID,204,VALID,1.28484,
2000-05-10, 02:26:00,VALID,916.311,VALID,0,VALID,99.4306,VALID,-0.0679233,VALID,17.9853,VALID,180,VALID,1.39913,
2000-05-10, 02:27:00,VALID,916.304,VALID,0,VALID,99.47,VALID,-0.101885,VALID,18.0079,VALID,198,VALID,1.06018,
2000-05-10, 02:28:00,VALID,916.291,VALID,0,VALID,99.4433,VALID,-0.0679233,VALID,18.0245,VALID,184,VALID,0.697115,
2000-05-10, 02:29:00,VALID,916.287,VALID,0,VALID,99.4598,VALID,-0.0509425,VALID,18.0178,VALID,207,VALID,0.588839,
2000-05-10, 02:30:00,VALID,916.308,VALID,0,VALID,99.4865,VALID,-0.0679233,VALID,18.0307,VALID,214,VALID,0.915296,
2000-05-10, 02:31:00,VALID,916.319,VALID,0,VALID,99.512,VALID,-0.0679233,VALID,18.0432,VALID,187,VALID,1.0221,
2000-05-10, 02:32:00,VALID,916.331,VALID,0,VALID,99.4789,VALID,-0.0339617,VALID,18.0462,VALID,180,VALID,0.942925,
2000-05-10, 02:33:00,VALID,916.329,VALID,0,VALID,99.4713,VALID,-0.0509425,VALID,18.0339,VALID,166,VALID,0.638672,
2000-05-10, 02:34:00,VALID,916.306,VALID,0,VALID,99.4713,VALID,-0.0339617,VALID,18.0148,VALID,162,VALID,0.748915,
2000-05-10, 02:35:00,VALID,916.296,VALID,0,VALID,99.4675,VALID,-0.0339617,VALID,17.9885,VALID,152,VALID,0.829153,
2000-05-10, 02:36:00,VALID,916.279,VALID,0,VALID,99.4725,VALID,-0.0339617,VALID,17.9823,VALID,156,VALID,0.970269,
2000-05-10, 02:37:00,VALID,916.264,VALID,0,VALID,99.4802,VALID,-0.0509425,VALID,17.9661,VALID,137,VALID,0.766493,
2000-05-10, 02:38:00,VALID,916.277,VALID,0,VALID,99.4611,VALID,0,VALID,17.9292,VALID,190,VALID,0.916735,
2000-05-10, 02:39:00,VALID,916.293,VALID,0,VALID,99.5056,VALID,0.0169808,VALID,17.9288,VALID,179,VALID,0.607143,
2000-05-10, 02:40:00,VALID,916.3,VALID,0,VALID,99.5107,VALID,0.0169808,VALID,17.9258,VALID,207,VALID,0.889992,
2000-05-10, 02:41:00,VALID,916.308,VALID,0,VALID,99.5107,VALID,0,VALID,17.9101,VALID,204,VALID,0.645221,
2000-05-10, 02:42:00,VALID,916.294,VALID,0,VALID,99.5323,VALID,0.0339617,VALID,17.8935,VALID,181,VALID,0.593117,
2000-05-10, 02:43:00,VALID,916.266,VALID,0,VALID,99.5488,VALID,0,VALID,17.8969,VALID,165,VALID,0.535256,
2000-05-10, 02:44:00,VALID,916.24,VALID,0,VALID,99.5323,VALID,0.0169808,VALID,17.8711,VALID,181,VALID,0.570313,
2000-05-10, 02:45:00,VALID,916.22,VALID,0,VALID,99.5437,VALID,0.0339617,VALID,17.855,VALID,180,VALID,0.91139,
2000-05-10, 02:46:00,VALID,916.204,VALID,0,VALID,99.5183,VALID,0.0169808,VALID,17.8287,VALID,178,VALID,0.829911,
2000-05-10, 02:47:00,VALID,916.189,VALID,0,VALID,99.5069,VALID,0.0509425,VALID,17.7833,VALID,190,VALID,0.986328,
2000-05-10, 02:48:00,VALID,916.193,VALID,0,VALID,99.5425,VALID,0.0339617,VALID,17.7736,VALID,178,VALID,0.879123,
2000-05-10, 02:49:00,VALID,916.192,VALID,0,VALID,99.5654,VALID,0,VALID,17.7611,VALID,176,VALID,0.921658,
2000-05-10, 02:50:00,VALID,916.199,VALID,0,VALID,99.5819,VALID,0.0169808,VALID,17.768,VALID,178,VALID,0.818051,
2000-05-10, 02:51:00,VALID,916.177,VALID,0,VALID,99.5412,VALID,0.0339617,VALID,17.7224,VALID,173,VALID,0.84375,
2000-05-10, 02:52:00,VALID,916.166,VALID,0,VALID,99.5717,VALID,0.0339617,VALID,17.7064,VALID,175,VALID,0.834418,
2000-05-10, 02:53:00,VALID,916.156,VALID,0,VALID,99.5272,VALID,0.0169808,VALID,17.6838,VALID,174,VALID,0.638775,
2000-05-10, 02:54:00,VALID,916.129,VALID,0,VALID,99.4789,VALID,0,VALID,17.6096,VALID,161,VALID,0.684375,
2000-05-10, 02:55:00,VALID,916.115,VALID,0,VALID,99.5056,VALID,0.0339617,VALID,17.5545,VALID,159,VALID,0.652238,
2000-05-10, 02:56:00,VALID,916.093,VALID,0,VALID,99.5285,VALID,0,VALID,17.5284,VALID,160,VALID,0.658088,
2000-05-10, 02:57:00,VALID,916.085,VALID,0,VALID,99.5145,VALID,0.0169808,VALID,17.5067,VALID,166,VALID,0.590794,
2000-05-10, 02:58:00,VALID,916.069,VALID,0,VALID,99.5463,VALID,0.0169808,VALID,17.4804,VALID,206,VALID,0.763021,
2000-05-10, 02:59:00,VALID,916.051,VALID,0,VALID,99.531,VALID,0,VALID,17.4578,VALID,208,VALID,0.875893,
2000-05-10, 03:00:00,VALID,916.042,VALID,0,VALID,99.5616,VALID,0.0169808,VALID,17.4451,VALID,195,VALID,0.796669,
2000-05-10, 03:01:00,VALID,916.044,VALID,0,VALID,99.6773,VALID,0,VALID,17.474,VALID,185,VALID,1.08951,
2000-05-10, 03:02:00,VALID,916.025,VALID,0,VALID,99.6366,VALID,0.0169808,VALID,17.497,VALID,171,VALID,0.876302,
2000-05-10, 03:03:00,VALID,916.008,VALID,0,VALID,99.5374,VALID,0.0679233,VALID,17.4223,VALID,170,VALID,0.753472,
2000-05-10, 03:04:00,VALID,916.002,VALID,0,VALID,99.5348,VALID,0.0169808,VALID,17.3743,VALID,189,VALID,0.895399,
2000-05-10, 03:05:00,VALID,916.013,VALID,0,VALID,99.6162,VALID,0.0169808,VALID,17.3481,VALID,198,VALID,1.34992,
2000-05-10, 03:06:00,VALID,916.003,VALID,0,VALID,99.7332,VALID,-0.0169808,VALID,17.4359,VALID,182,VALID,1.44553,
2000-05-10, 03:07:00,VALID,916.004,VALID,0,VALID,99.6747,VALID,0.0339617,VALID,17.4389,VALID,182,VALID,1.49262,
2000-05-10, 03:08:00,VALID,916,VALID,0,VALID,99.6836,VALID,0.0169808,VALID,17.4133,VALID,186,VALID,1.71382,
2000-05-10, 03:09:00,VALID,915.993,VALID,0,VALID,99.6951,VALID,0.0169808,VALID,17.426,VALID,191,VALID,1.49621,
2000-05-10, 03:10:00,VALID,915.945,VALID,0,VALID,99.6849,VALID,0,VALID,17.4032,VALID,184,VALID,1.06985,
2000-05-10, 03:11:00,VALID,915.945,VALID,0,VALID,99.662,VALID,0,VALID,17.3905,VALID,193,VALID,0.994026,
2000-05-10, 03:12:00,VALID,915.93,VALID,0,VALID,99.6824,VALID,0.0169808,VALID,17.3644,VALID,192,VALID,1.10916,
2000-05-10, 03:13:00,VALID,915.906,VALID,0,VALID,99.7027,VALID,0.0169808,VALID,17.3681,VALID,213,VALID,0.817708,
2000-05-10, 03:14:00,VALID,915.911,VALID,0,VALID,99.7154,VALID,0.0339617,VALID,17.3646,VALID,197,VALID,1.03594,
2000-05-10, 03:15:00,VALID,915.908,VALID,0,VALID,99.7269,VALID,0,VALID,17.3649,VALID,212,VALID,0.858758,
2000-05-10, 03:16:00,VALID,915.905,VALID,0,VALID,99.751,VALID,0.0169808,VALID,17.3713,VALID,223,VALID,0.790179,
2000-05-10, 03:17:00,VALID,915.923,VALID,0,VALID,99.7752,VALID,0,VALID,17.3976,VALID,201,VALID,1.10308,
2000-05-10, 03:18:00,VALID,915.931,VALID,0,VALID,99.7828,VALID,0,VALID,17.4001,VALID,208,VALID,0.675781,
2000-05-10, 03:19:00,VALID,915.939,VALID,0,VALID,99.7777,VALID,0.0339617,VALID,17.4133,VALID,167,VALID,0.90191,
2000-05-10, 03:20:00,VALID,915.958,VALID,0,VALID,99.7828,VALID,0.0169808,VALID,17.4029,VALID,197,VALID,0.770559,
2000-05-10, 03:21:00,VALID,915.984,VALID,0,VALID,99.7752,VALID,0.0169808,VALID,17.4068,VALID,170,VALID,0.792535,
2000-05-10, 03:22:00,VALID,915.982,VALID,0,VALID,99.7675,VALID,0,VALID,17.4004,VALID,179,VALID,1.13759,
2000-05-10, 03:23:00,VALID,915.99,VALID,0,VALID,99.7726,VALID,0,VALID,17.4001,VALID,170,VALID,0.675164,
2000-05-10, 03:24:00,VALID,915.991,VALID,0,VALID,99.7383,VALID,0.0169808,VALID,17.361,VALID,182,VALID,0.830357,
2000-05-10, 03:25:00,VALID,915.991,VALID,0,VALID,99.7828,VALID,0.0169808,VALID,17.3685,VALID,187,VALID,1.08488,
2000-05-10, 03:26:00,VALID,915.995,VALID,0,VALID,99.7663,VALID,0,VALID,17.342,VALID,184,VALID,0.934972,
2000-05-10, 03:27:00,VALID,915.997,VALID,0,VALID,99.7523,VALID,0,VALID,17.3459,VALID,185,VALID,0.927154,
2000-05-10, 03:28:00,VALID,915.993,VALID,0,VALID,99.7421,VALID,0.0169808,VALID,17.2968,VALID,192,VALID,1.08393,
2000-05-10, 03:29:00,VALID,916.003,VALID,0,VALID,99.7688,VALID,0.0169808,VALID,17.294,VALID,198,VALID,0.89308,
2000-05-10, 03:30:00,VALID,916.029,VALID,0,VALID,99.765,VALID,0.0169808,VALID,17.2876,VALID,190,VALID,0.995477,
2000-05-10, 03:31:00,VALID,916.035,VALID,0,VALID,99.7574,VALID,0,VALID,17.2648,VALID,186,VALID,0.796875,
2000-05-10, 03:32:00,VALID,916.052,VALID,0,VALID,99.7358,VALID,0,VALID,17.2422,VALID,184,VALID,0.593099,
2000-05-10, 03:33:00,VALID,916.054,VALID,0,VALID,99.7434,VALID,0.0169808,VALID,17.2133,VALID,185,VALID,0.636285,